"Date","Downloads","Mod Version"
"2024-05-11 16:31:42.425448","17","v2.0.7"
"2024-05-11 15:31:03.936129","19","v2.0.7"
"2024-05-11 14:30:26.781041","11","v2.0.7"
"2024-05-11 13:29:09.209704","11","v2.0.7"
"2024-05-11 12:21:13.385210","11","v2.0.7"
"2024-05-11 11:13:29.629242","8","v2.0.7"
"2024-05-11 10:04:04.385848","13","v2.0.7"
"2024-05-11 08:57:00.592528","6","v2.0.7"
"2024-05-11 07:52:05.328936","12","v2.0.7"
"2024-05-11 06:51:28.270393","7","v2.0.7"
"2024-05-11 05:50:17.077445","8","v2.0.7"
"2024-05-11 04:49:19.546231","9","v2.0.7"
"2024-05-11 03:43:05.570874","8","v2.0.7"
"2024-05-11 02:35:28.731444","8","v2.0.7"
"2024-05-11 01:34:44.370823","5","v2.0.7"
"2024-05-11 00:30:58.943283","9","v2.0.7"
"2024-05-10 23:28:38.254172","13","v2.0.7"
"2024-05-10 22:25:32.681716","16","v2.0.7"
"2024-05-10 21:17:56.023490","12","v2.0.7"
"2024-05-10 20:17:36.065802","9","v2.0.7"
"2024-05-10 19:17:03.913689","13","v2.0.7"
"2024-05-10 18:16:22.056521","10","v2.0.7"
"2024-05-10 17:09:31.966489","10","v2.0.7"
"2024-05-10 16:08:37.927513","8","v2.0.7"
"2024-05-10 15:07:09.207892","15","v2.0.7"
"2024-05-10 14:00:09.134084","12","v2.0.7"
"2024-05-10 12:53:38.707895","19","v2.0.7"
"2024-05-10 06:59:49.672774","10","v2.0.7"
"2024-05-10 05:59:24.758285","6","v2.0.7"
"2024-05-10 04:45:48.601605","6","v2.0.7"
"2024-05-10 03:35:08.358315","10","v2.0.7"
"2024-05-10 02:26:00.665874","7","v2.0.7"
"2024-05-10 01:22:31.952251","8","v2.0.7"
"2024-05-10 00:20:24.903064","5","v2.0.7"
"2024-05-09 23:08:26.279558","11","v2.0.7"
"2024-05-09 22:07:14.822773","12","v2.0.7"
"2024-05-09 20:51:41.613225","15","v2.0.7"
"2024-05-09 19:49:12.305825","16","v2.0.7"
"2024-05-09 18:40:57.493173","16","v2.0.7"
"2024-05-09 17:33:43.334370","12","v2.0.7"
"2024-05-09 16:32:48.299677","16","v2.0.7"
"2024-05-09 15:22:58.433344","11","v2.0.7"
"2024-05-09 14:20:53.336357","16","v2.0.7"
"2024-05-09 13:13:21.093668","10","v2.0.7"
"2024-05-09 12:10:13.808847","16","v2.0.7"
"2024-05-09 11:00:09.267584","11","v2.0.7"
"2024-05-09 09:57:14.434218","7","v2.0.7"
"2024-05-09 08:54:11.301910","8","v2.0.7"
"2024-05-09 07:53:36.890934","12","v2.0.7"
"2024-05-09 06:53:26.215509","7","v2.0.7"
"2024-05-09 05:32:23.406636","10","v2.0.7"
"2024-05-09 04:27:33.174458","11","v2.0.7"
"2024-05-09 03:16:00.036295","14","v2.0.7"
"2024-05-09 02:15:58.738159","9","v2.0.7"
"2024-05-09 01:08:28.492428","15","v2.0.7"
"2024-05-09 00:07:44.144805","15","v2.0.7"
"2024-05-08 23:21:43.988199","1","2.0.1"
"2024-05-08 22:59:52.878951","16","v2.0.7"
"2024-05-08 21:51:57.673254","20","v2.0.7"
"2024-05-08 20:47:28.873842","22","v2.0.7"
"2024-05-08 19:46:31.305957","11","v2.0.7"
"2024-05-08 18:41:53.375926","21","v2.0.7"
"2024-05-08 17:40:02.811343","15","v2.0.7"
"2024-05-08 16:39:30.337567","18","v2.0.7"
"2024-05-08 15:38:52.711381","16","v2.0.7"
"2024-05-08 14:36:37.424205","21","v2.0.7"
"2024-05-08 13:34:18.225361","17","v2.0.7"
"2024-05-08 12:27:52.117194","11","v2.0.7"
"2024-05-08 11:23:07.214481","8","v2.0.7"
"2024-05-08 10:15:05.553232","12","v2.0.7"
"2024-05-08 09:14:10.421131","14","v2.0.7"
"2024-05-08 08:06:18.438685","5","v2.0.7"
"2024-05-08 06:55:44.509164","7","v2.0.7"
"2024-05-08 05:48:27.118299","7","v2.0.7"
"2024-05-08 04:31:08.227758","3","v2.0.7"
"2024-05-08 03:27:38.629380","12","v2.0.7"
"2024-05-08 02:09:39.692142","13","v2.0.7"
"2024-05-08 01:06:21.754404","12","v2.0.7"
"2024-05-08 00:01:24.566162","15","v2.0.7"
"2024-05-07 22:56:42.166155","15","v2.0.7"
"2024-05-07 22:12:27.939429","1","v2.0.5"
"2024-05-07 21:49:25.743550","24","v2.0.7"
"2024-05-07 20:44:08.196867","19","v2.0.7"
"2024-05-07 19:47:20.256584","1","v2.0.4"
"2024-05-07 19:43:30.040770","17","v2.0.7"
"2024-05-07 18:30:14.346474","11","v2.0.7"
"2024-05-07 17:23:09.961932","22","v2.0.7"
"2024-05-07 16:17:33.446146","16","v2.0.7"
"2024-05-07 15:17:33.139963","12","v2.0.7"
"2024-05-07 14:03:04.628450","10","v2.0.7"
"2024-05-07 13:02:34.284391","13","v2.0.7"
"2024-05-07 11:50:19.548327","9","v2.0.7"
"2024-05-07 10:37:27.436016","5","v2.0.7"
"2024-05-07 09:30:45.592452","7","v2.0.7"
"2024-05-07 08:15:00.988856","6","v2.0.7"
"2024-05-06 20:26:32.731543","1","v2.0.7"
"2024-05-06 18:17:14.070879","2","v2.0.7"
"2024-05-06 16:59:58.439298","1","v2.0.7"
"2024-05-06 15:50:14.859074","1","v2.0.7"
"2024-05-06 14:38:22.211914","1","v2.0.7"
"2024-05-06 12:49:11.141683","11","v2.0.7"
"2024-05-06 11:44:17.925760","8","v2.0.7"
"2024-05-06 10:12:10.645731","7","v2.0.7"
"2024-05-06 09:09:09.059839","9","v2.0.7"
"2024-05-06 07:59:12.005058","6","v2.0.7"
"2024-05-06 06:51:53.969203","4","v2.0.7"
"2024-05-06 05:46:47.887975","6","v2.0.7"
"2024-05-06 04:30:15.549372","7","v2.0.7"
"2024-05-06 03:26:11.675914","10","v2.0.7"
"2024-05-06 02:24:08.652580","13","v2.0.7"
"2024-05-06 00:38:26.150323","12","v2.0.7"
"2024-05-05 23:14:10.438291","16","v2.0.7"
"2024-05-05 22:06:27.305328","18","v2.0.7"
"2024-05-05 20:52:41.619257","11","v2.0.7"
"2024-05-05 19:51:06.001687","12","v2.0.7"
"2024-05-05 18:46:22.260697","13","v2.0.7"
"2024-05-05 17:52:44.375318","1","v2.0.6"
"2024-05-05 17:46:22.108927","12","v2.0.7"
"2024-05-05 16:42:00.530125","19","v2.0.7"
"2024-05-05 15:37:23.882399","11","v2.0.7"
"2024-05-05 14:36:28.039959","8","v2.0.7"
"2024-05-05 13:36:01.723370","18","v2.0.7"
"2024-05-05 12:35:41.190068","12","v2.0.7"
"2024-05-05 11:23:18.145966","17","v2.0.7"
"2024-05-05 10:07:20.041942","7","v2.0.7"
"2024-05-05 09:02:46.587583","9","v2.0.7"
"2024-05-05 07:53:48.477786","6","v2.0.7"
"2024-05-05 06:50:47.100647","13","v2.0.7"
"2024-05-05 05:37:54.477834","8","v2.0.7"
"2024-05-05 04:35:57.840158","11","v2.0.7"
"2024-05-05 03:32:40.367470","9","v2.0.7"
"2024-05-05 02:29:40.199763","13","v2.0.7"
"2024-05-05 01:14:17.113043","7","v2.0.7"
"2024-05-05 00:13:01.469838","17","v2.0.7"
"2024-05-04 23:12:14.936292","10","v2.0.7"
"2024-05-04 22:11:16.989755","8","v2.0.7"
"2024-05-04 21:11:16.878494","10","v2.0.7"
"2024-05-04 20:05:59.467424","14","v2.0.7"
"2024-05-04 18:58:47.475663","11","v2.0.7"
"2024-05-04 17:54:07.625353","17","v2.0.7"
"2024-05-04 16:52:49.519539","13","v2.0.7"
"2024-05-04 15:52:47.074402","13","v2.0.7"
"2024-05-04 14:47:27.039464","18","v2.0.7"
"2024-05-04 13:44:00.416563","16","v2.0.7"
"2024-05-04 12:42:02.039639","12","v2.0.7"
"2024-05-04 11:41:44.795904","11","v2.0.7"
"2024-05-04 10:36:00.660987","10","v2.0.7"
"2024-05-04 09:30:52.727230","13","v2.0.7"
"2024-05-04 08:29:36.998737","8","v2.0.7"
"2024-05-04 07:28:45.451308","6","v2.0.7"
"2024-05-04 06:12:19.470372","7","v2.0.7"
"2024-05-04 05:08:07.861880","7","v2.0.7"
"2024-05-04 04:02:51.831134","8","v2.0.7"
"2024-05-04 02:58:33.452869","8","v2.0.7"
"2024-05-04 01:51:48.651850","18","v2.0.7"
"2024-05-04 00:51:21.410361","6","v2.0.7"
"2024-05-03 23:48:49.161703","9","v2.0.7"
"2024-05-03 22:46:32.550219","8","v2.0.7"
"2024-05-03 21:38:15.780167","7","v2.0.7"
"2024-05-03 20:27:31.523576","11","v2.0.7"
"2024-05-03 19:27:07.929437","10","v2.0.7"
"2024-05-03 18:17:35.812955","11","v2.0.7"
"2024-05-03 17:12:04.837327","11","v2.0.7"
"2024-05-03 16:00:16.968896","7","v2.0.7"
"2024-05-03 14:55:07.000868","10","v2.0.7"
"2024-05-03 13:48:13.497730","10","v2.0.7"
"2024-05-03 12:43:16.382142","8","v2.0.7"
"2024-05-03 11:37:10.425501","17","v2.0.7"
"2024-05-03 10:14:33.629897","7","v2.0.7"
"2024-05-03 09:02:07.441994","11","v2.0.7"
"2024-05-03 07:52:24.540224","6","v2.0.7"
"2024-05-03 06:44:02.019445","5","v2.0.7"
"2024-05-03 05:02:23.301790","12","v2.0.7"
"2024-05-03 03:27:24.327821","6","v2.0.7"
"2024-05-03 02:22:16.372390","7","v2.0.7"
"2024-05-03 01:17:45.630421","12","v2.0.7"
"2024-05-03 00:16:50.739758","6","v2.0.7"
"2024-05-02 23:01:18.601239","12","v2.0.7"
"2024-05-02 21:53:33.264124","4","v2.0.7"
"2024-05-02 20:47:09.174072","10","v2.0.7"
"2024-05-02 19:23:15.579931","5","v2.0.7"
"2024-05-02 18:20:50.938388","1","v2.0.5"
"2024-05-02 18:14:47.529241","12","v2.0.7"
"2024-05-02 17:14:16.560749","11","v2.0.7"
"2024-05-02 16:11:58.830762","7","v2.0.7"
"2024-05-02 15:11:33.448953","13","v2.0.7"
"2024-05-02 14:10:07.681941","11","v2.0.7"
"2024-05-02 12:50:00.726234","8","v2.0.7"
"2024-05-02 11:30:33.356386","8","v2.0.7"
"2024-05-02 10:24:15.166471","11","v2.0.7"
"2024-05-02 09:22:24.717924","4","v2.0.7"
"2024-05-02 08:13:34.495018","8","v2.0.7"
"2024-05-02 08:03:40.128244","1","v2.0.6"
"2024-05-02 06:42:01.918815","7","v2.0.7"
"2024-05-02 05:38:36.803738","7","v2.0.7"
"2024-05-02 04:29:51.077248","6","v2.0.7"
"2024-05-02 02:49:05.062864","5","v2.0.7"
"2024-05-02 01:46:28.949128","9","v2.0.7"
"2024-05-02 00:41:42.208573","4","v2.0.7"
"2024-05-01 23:18:30.289660","9","v2.0.7"
"2024-05-01 22:20:23.744349","1","v2.0.5"
"2024-05-01 21:58:38.024856","5","v2.0.7"
"2024-05-01 20:58:36.878068","5","v2.0.7"
"2024-05-01 19:54:43.474404","10","v2.0.7"
"2024-05-01 18:53:06.599281","12","v2.0.7"
"2024-05-01 17:44:04.400562","10","v2.0.7"
"2024-05-01 16:37:46.078229","12","v2.0.7"
"2024-05-01 15:27:53.638081","4","v2.0.7"
"2024-05-01 14:15:21.288669","8","v2.0.7"
"2024-05-01 13:45:06.422365","1","2.0.0"
"2024-05-01 13:45:04.309281","1","2.0.0b"
"2024-05-01 13:45:02.534797","1","2.0.1"
"2024-05-01 13:45:00.680120","1","v2.0.2"
"2024-05-01 13:44:58.914236","1","v2.0.3"
"2024-05-01 13:44:57.058430","1","v2.0.4"
"2024-05-01 13:44:23.241486","1","v2.0.6"
"2024-05-01 13:08:25.508730","7","v2.0.7"
"2024-05-01 11:44:39.622309","6","v2.0.7"
"2024-05-01 10:37:24.612361","9","v2.0.7"
"2024-05-01 09:27:44.047318","8","v2.0.7"
"2024-05-01 08:22:11.204153","10","v2.0.7"
"2024-05-01 07:14:35.678333","7","v2.0.7"
"2024-05-01 06:03:49.868869","5","v2.0.7"
"2024-05-01 05:02:34.937241","5","v2.0.7"
"2024-05-01 03:46:02.382024","3","v2.0.7"
"2024-05-01 02:16:10.768212","7","v2.0.7"
"2024-05-01 01:07:13.567976","6","v2.0.7"
"2024-05-01 00:03:02.138402","4","v2.0.7"
"2024-04-30 23:00:00.878473","8","v2.0.7"
"2024-04-30 21:59:58.533930","4","v2.0.7"
"2024-04-30 20:31:10.444630","8","v2.0.7"
"2024-04-30 19:29:05.921615","6","v2.0.7"
"2024-04-30 18:10:29.051698","2","v2.0.7"
"2024-04-30 17:09:18.714654","7","v2.0.7"
"2024-04-30 15:46:50.486496","7","v2.0.7"
"2024-04-30 14:41:30.668716","8","v2.0.7"
"2024-04-30 13:40:26.417724","15","v2.0.7"
"2024-04-30 12:40:03.612684","8","v2.0.7"
"2024-04-30 11:19:51.264603","10","v2.0.7"
"2024-04-30 10:07:05.556974","4","v2.0.7"
"2024-04-30 09:03:51.769340","9","v2.0.7"
"2024-04-30 07:49:12.486237","2","v2.0.7"
"2024-04-30 06:33:12.222632","4","v2.0.7"
"2024-04-30 05:14:42.334991","3","v2.0.7"
"2024-04-30 03:34:35.780278","7","v2.0.7"
"2024-04-30 02:21:26.904545","3","v2.0.7"
"2024-04-30 01:11:02.319605","6","v2.0.7"
"2024-04-30 00:00:42.454444","5","v2.0.7"
"2024-04-29 22:39:45.342245","9","v2.0.7"
"2024-04-29 21:18:41.237456","5","v2.0.7"
"2024-04-29 20:16:48.811293","3","v2.0.7"
"2024-04-29 18:57:37.408326","5","v2.0.7"
"2024-04-29 17:52:14.081535","9","v2.0.7"
"2024-04-29 16:49:49.116370","9","v2.0.7"
"2024-04-29 15:47:31.850575","5","v2.0.7"
"2024-04-29 14:36:59.916798","8","v2.0.7"
"2024-04-29 13:18:05.566042","5","v2.0.7"
"2024-04-29 12:13:02.626279","6","v2.0.7"
"2024-04-29 11:08:45.350668","6","v2.0.7"
"2024-04-29 10:01:36.673231","4","v2.0.7"
"2024-04-29 08:48:11.997432","6","v2.0.7"
"2024-04-29 07:44:12.119679","7","v2.0.7"
"2024-04-29 06:39:54.822095","5","v2.0.7"
"2024-04-29 05:33:27.956949","5","v2.0.7"
"2024-04-29 03:33:58.797748","3","v2.0.7"
"2024-04-29 02:33:06.925307","6","v2.0.7"
"2024-04-29 01:27:54.402972","5","v2.0.7"
"2024-04-29 00:25:19.315684","6","v2.0.7"
"2024-04-28 23:23:49.366814","10","v2.0.7"
"2024-04-28 22:20:18.882268","6","v2.0.7"
"2024-04-28 21:17:50.168717","5","v2.0.7"
"2024-04-28 20:04:53.527612","6","v2.0.7"
"2024-04-28 18:58:43.321518","9","v2.0.7"
"2024-04-28 17:57:06.225368","6","v2.0.7"
"2024-04-28 16:42:33.740153","6","v2.0.7"
"2024-04-28 15:38:15.206689","7","v2.0.7"
"2024-04-28 14:28:58.793806","12","v2.0.7"
"2024-04-28 13:27:02.662933","10","v2.0.7"
"2024-04-28 12:21:23.782294","6","v2.0.7"
"2024-04-28 11:20:51.966357","4","v2.0.7"
"2024-04-28 10:07:29.552665","15","v2.0.7"
"2024-04-28 08:58:08.101584","9","v2.0.7"
"2024-04-28 08:45:48.205311","1","v2.0.5"
"2024-04-28 07:53:09.651147","5","v2.0.7"
"2024-04-28 06:43:55.889229","6","v2.0.7"
"2024-04-28 05:36:03.613997","4","v2.0.7"
"2024-04-28 04:34:37.708923","5","v2.0.7"
"2024-04-28 03:26:49.976108","6","v2.0.7"
"2024-04-28 02:06:23.701158","7","v2.0.7"
"2024-04-28 00:55:51.322548","4","v2.0.7"
"2024-04-27 23:40:43.608734","6","v2.0.7"
"2024-04-27 22:31:39.689190","13","v2.0.7"
"2024-04-27 20:49:56.104049","8","v2.0.7"
"2024-04-27 19:47:19.399269","9","v2.0.7"
"2024-04-27 18:41:43.096424","14","v2.0.7"
"2024-04-27 17:39:51.125394","11","v2.0.7"
"2024-04-27 16:35:58.608519","5","v2.0.7"
"2024-04-27 16:29:14.978933","1","2.0.1"
"2024-04-27 15:34:12.575597","8","v2.0.7"
"2024-04-27 14:24:10.924171","14","v2.0.7"
"2024-04-27 13:17:57.441397","8","v2.0.7"
"2024-04-27 12:11:14.593003","17","v2.0.7"
"2024-04-27 10:59:54.035556","7","v2.0.7"
"2024-04-27 09:58:43.856097","6","v2.0.7"
"2024-04-27 08:55:46.430235","9","v2.0.7"
"2024-04-27 07:52:46.109723","7","v2.0.7"
"2024-04-27 06:52:45.532761","7","v2.0.7"
"2024-04-27 05:48:53.431858","4","v2.0.7"
"2024-04-27 04:47:42.092765","7","v2.0.7"
"2024-04-27 03:42:13.685637","3","v2.0.7"
"2024-04-27 02:30:10.097030","8","v2.0.7"
"2024-04-27 01:15:50.644797","5","v2.0.7"
"2024-04-26 23:49:06.972562","12","v2.0.7"
"2024-04-26 22:15:39.984851","6","v2.0.7"
"2024-04-26 21:13:37.428324","7","v2.0.7"
"2024-04-26 20:09:57.912542","5","v2.0.7"
"2024-04-26 19:05:55.701127","4","v2.0.7"
"2024-04-26 17:59:58.870476","4","v2.0.7"
"2024-04-26 16:46:24.187719","10","v2.0.7"
"2024-04-26 15:40:19.894852","7","v2.0.7"
"2024-04-26 14:27:26.104904","6","v2.0.7"
"2024-04-26 13:16:54.050326","4","v2.0.7"
"2024-04-26 12:03:00.052737","4","v2.0.7"
"2024-04-26 10:55:24.800859","5","v2.0.7"
"2024-04-26 09:41:44.603856","6","v2.0.7"
"2024-04-26 08:37:53.518010","7","v2.0.7"
"2024-04-26 07:20:18.298913","7","v2.0.7"
"2024-04-26 06:11:06.390042","4","v2.0.7"
"2024-04-26 04:39:24.664497","5","v2.0.7"
"2024-04-26 02:56:38.128390","6","v2.0.7"
"2024-04-26 02:01:53.688818","1","v2.0.5"
"2024-04-26 01:48:55.718804","5","v2.0.7"
"2024-04-25 23:36:51.734406","4","v2.0.7"
"2024-04-25 22:36:22.796288","5","v2.0.7"
"2024-04-25 21:29:42.249742","5","v2.0.7"
"2024-04-25 20:28:45.683159","4","v2.0.7"
"2024-04-25 19:20:34.430744","5","v2.0.7"
"2024-04-25 17:49:55.699097","5","v2.0.7"
"2024-04-25 16:22:10.068968","5","v2.0.7"
"2024-04-25 15:21:21.525650","9","v2.0.7"
"2024-04-25 14:18:38.719435","9","v2.0.7"
"2024-04-25 13:15:18.149115","6","v2.0.7"
"2024-04-25 12:11:50.349597","5","v2.0.7"
"2024-04-25 10:56:13.885493","2","v2.0.7"
"2024-04-25 09:25:48.972202","5","v2.0.7"
"2024-04-25 08:13:55.099001","2","v2.0.7"
"2024-04-25 07:01:54.140053","2","v2.0.7"
"2024-04-25 05:38:47.754561","2","v2.0.7"
"2024-04-25 04:18:40.581516","5","v2.0.7"
"2024-04-25 03:16:15.828222","6","v2.0.7"
"2024-04-25 01:55:13.721609","5","v2.0.7"
"2024-04-25 00:44:49.549841","5","v2.0.7"
"2024-04-24 23:31:30.262250","5","v2.0.7"
"2024-04-24 22:29:43.230128","8","v2.0.7"
"2024-04-24 21:16:09.333522","5","v2.0.7"
"2024-04-24 20:15:08.615559","6","v2.0.7"
"2024-04-24 18:30:22.888544","12","v2.0.7"
"2024-04-24 17:20:24.131743","7","v2.0.7"
"2024-04-24 16:05:35.128481","10","v2.0.7"
"2024-04-24 14:58:06.204967","6","v2.0.7"
"2024-04-24 13:56:12.145309","11","v2.0.7"
"2024-04-24 12:47:06.642500","3","v2.0.7"
"2024-04-24 11:14:17.417260","6","v2.0.7"
"2024-04-24 09:47:54.738870","2","v2.0.7"
"2024-04-24 08:40:06.928440","2","v2.0.7"
"2024-04-24 07:36:45.251753","7","v2.0.7"
"2024-04-24 06:01:51.634327","4","v2.0.7"
"2024-04-24 05:01:14.395897","2","v2.0.7"
"2024-04-23 23:58:53.525566","2","v2.0.7"
"2024-04-23 22:57:55.399687","4","v2.0.7"
"2024-04-23 21:55:39.415689","6","v2.0.7"
"2024-04-23 20:47:04.361475","7","v2.0.7"
"2024-04-23 19:44:19.958434","8","v2.0.7"
"2024-04-23 18:42:39.287687","6","v2.0.7"
"2024-04-23 17:25:08.705706","3","v2.0.7"
"2024-04-23 17:12:56.936684","1","v2.0.4"
"2024-04-23 16:22:25.095219","5","v2.0.7"
"2024-04-23 15:21:56.118102","11","v2.0.7"
"2024-04-23 14:20:53.195466","9","v2.0.7"
"2024-04-23 13:00:57.213914","8","v2.0.7"
"2024-04-23 11:37:48.226546","5","v2.0.7"
"2024-04-23 10:27:50.154838","7","v2.0.7"
"2024-04-23 09:20:24.940234","10","v2.0.7"
"2024-04-23 07:30:23.247246","3","v2.0.7"
"2024-04-23 06:29:44.031001","4","v2.0.7"
"2024-04-23 05:22:22.168897","2","v2.0.7"
"2024-04-23 04:22:07.224532","2","v2.0.7"
"2024-04-23 03:13:29.030663","4","v2.0.7"
"2024-04-23 01:48:21.192476","6","v2.0.7"
"2024-04-23 00:43:17.150988","6","v2.0.7"
"2024-04-22 23:28:55.367132","4","v2.0.7"
"2024-04-22 22:14:50.118327","6","v2.0.7"
"2024-04-22 21:10:51.809230","6","v2.0.7"
"2024-04-22 20:10:08.091615","4","v2.0.7"
"2024-04-22 19:09:16.912071","13","v2.0.7"
"2024-04-22 18:09:07.103831","8","v2.0.7"
"2024-04-22 17:04:20.138120","8","v2.0.7"
"2024-04-22 15:54:36.474378","5","v2.0.7"
"2024-04-22 14:54:04.249567","9","v2.0.7"
"2024-04-22 13:47:39.494128","3","v2.0.7"
"2024-04-22 12:47:17.405035","6","v2.0.7"
"2024-04-22 11:44:49.600804","5","v2.0.7"
"2024-04-22 10:32:27.785701","5","v2.0.7"
"2024-04-22 08:44:18.515490","6","v2.0.7"
"2024-04-22 07:37:18.351369","6","v2.0.7"
"2024-04-22 06:22:20.158795","3","v2.0.7"
"2024-04-22 05:16:15.342530","2","v2.0.7"
"2024-04-22 04:11:54.421956","2","v2.0.7"
"2024-04-22 03:10:46.748999","5","v2.0.7"
"2024-04-22 02:04:14.160365","8","v2.0.7"
"2024-04-22 00:40:04.037702","9","v2.0.7"
"2024-04-21 23:34:19.867287","4","v2.0.7"
"2024-04-21 22:29:43.847874","5","v2.0.7"
"2024-04-21 21:23:06.266619","7","v2.0.7"
"2024-04-21 20:11:50.721395","5","v2.0.7"
"2024-04-21 18:54:02.053197","7","v2.0.7"
"2024-04-21 17:48:51.063888","6","v2.0.7"
"2024-04-21 16:36:42.303501","14","v2.0.7"
"2024-04-21 15:34:52.844243","9","v2.0.7"
"2024-04-21 14:31:05.098864","12","v2.0.7"
"2024-04-21 13:29:45.696742","7","v2.0.7"
"2024-04-21 12:24:20.997169","15","v2.0.7"
"2024-04-21 11:14:52.361078","6","v2.0.7"
"2024-04-21 10:14:42.368692","5","v2.0.7"
"2024-04-21 08:34:31.622766","4","v2.0.7"
"2024-04-21 07:27:58.560994","4","v2.0.7"
"2024-04-21 06:26:28.647574","5","v2.0.7"
"2024-04-21 05:00:50.734798","4","v2.0.7"
"2024-04-21 03:45:32.830882","4","v2.0.7"
"2024-04-21 02:03:22.217007","9","v2.0.7"
"2024-04-21 00:44:18.214568","3","v2.0.7"
"2024-04-20 23:26:29.600230","5","v2.0.7"
"2024-04-20 21:57:56.839956","10","v2.0.7"
"2024-04-20 20:54:18.849056","7","v2.0.7"
"2024-04-20 19:41:11.703817","15","v2.0.7"
"2024-04-20 18:33:20.962689","10","v2.0.7"
"2024-04-20 17:32:47.445083","5","v2.0.7"
"2024-04-20 16:30:32.915491","5","v2.0.7"
"2024-04-20 15:10:47.110150","11","v2.0.7"
"2024-04-20 13:50:53.754886","14","v2.0.7"
"2024-04-20 12:49:10.929562","7","v2.0.7"
"2024-04-20 11:46:08.908761","13","v2.0.7"
"2024-04-20 10:34:20.801891","6","v2.0.7"
"2024-04-20 09:34:01.027661","6","v2.0.7"
"2024-04-20 08:00:11.726136","10","v2.0.7"
"2024-04-20 06:55:39.809737","5","v2.0.7"
"2024-04-20 05:51:56.379640","6","v2.0.7"
"2024-04-20 04:30:05.657109","8","v2.0.7"
"2024-04-20 03:17:54.596464","6","v2.0.7"
"2024-04-20 02:07:13.370735","5","v2.0.7"
"2024-04-20 01:02:51.639965","4","v2.0.7"
"2024-04-19 23:58:18.464248","7","v2.0.7"
"2024-04-19 22:25:07.588115","3","v2.0.7"
"2024-04-19 21:24:18.037009","9","v2.0.7"
"2024-04-19 20:02:06.686805","5","v2.0.7"
"2024-04-19 18:22:07.121875","8","v2.0.7"
"2024-04-19 17:14:27.179885","9","v2.0.7"
"2024-04-19 15:54:17.594452","1","v2.0.7"
"2024-04-19 14:38:30.796066","9","v2.0.7"
"2024-04-19 13:26:34.921674","5","v2.0.7"
"2024-04-19 13:05:28.657108","1","v2.0.6"
"2024-04-19 12:26:01.496100","9","v2.0.7"
"2024-04-19 11:09:42.584292","5","v2.0.7"
"2024-04-19 09:43:04.603471","5","v2.0.7"
"2024-04-19 08:32:59.530851","4","v2.0.7"
"2024-04-19 07:22:50.698947","7","v2.0.7"
"2024-04-19 06:20:36.806187","2","v2.0.7"
"2024-04-19 04:53:13.612702","5","v2.0.7"
"2024-04-19 03:53:03.565753","1","2.0.0"
"2024-04-19 03:52:55.488264","1","2.0.0b"
"2024-04-19 03:52:47.208103","1","2.0.1"
"2024-04-19 03:52:38.550496","1","v2.0.2"
"2024-04-19 03:52:30.209572","1","v2.0.3"
"2024-04-19 03:52:21.304722","1","v2.0.4"
"2024-04-19 03:52:12.454193","1","v2.0.5"
"2024-04-19 03:52:04.249419","1","v2.0.6"
"2024-04-19 03:51:55.520766","7","v2.0.7"
"2024-04-19 02:46:27.584360","5","v2.0.7"
"2024-04-19 01:34:51.274504","6","v2.0.7"
"2024-04-19 00:06:24.510988","4","v2.0.7"
"2024-04-18 23:02:18.445471","5","v2.0.7"
"2024-04-18 21:58:30.243316","7","v2.0.7"
"2024-04-18 20:51:47.256883","11","v2.0.7"
"2024-04-18 19:43:59.401368","5","v2.0.7"
"2024-04-18 18:41:48.364786","3","v2.0.7"
"2024-04-18 17:36:42.205070","5","v2.0.7"
"2024-04-18 16:25:42.947021","5","v2.0.7"
"2024-04-18 15:21:11.214060","8","v2.0.7"
"2024-04-18 14:03:18.814638","3","v2.0.7"
"2024-04-18 12:49:36.266875","7","v2.0.7"
"2024-04-18 11:35:37.950509","5","v2.0.7"
"2024-04-18 10:34:07.086212","5","v2.0.7"
"2024-04-18 08:49:58.364594","8","v2.0.7"
"2024-04-18 07:08:52.152564","2","v2.0.7"
"2024-04-18 05:43:16.555181","5","v2.0.7"
"2024-04-18 04:14:11.965999","5","v2.0.7"
"2024-04-18 02:48:50.557557","5","v2.0.7"
"2024-04-18 01:44:33.998527","4","v2.0.7"
"2024-04-17 23:44:10.110233","9","v2.0.7"
"2024-04-17 22:42:23.660641","6","v2.0.7"
"2024-04-17 21:07:50.449848","9","v2.0.7"
"2024-04-17 19:58:28.326940","6","v2.0.7"
"2024-04-17 18:20:41.306319","2","v2.0.7"
"2024-04-17 17:16:58.428975","5","v2.0.7"
"2024-04-17 16:13:59.266574","3","v2.0.7"
"2024-04-17 15:06:05.608774","6","v2.0.7"
"2024-04-17 14:04:44.793817","3","v2.0.7"
"2024-04-17 12:53:36.696773","4","v2.0.7"
"2024-04-17 11:48:29.866557","3","v2.0.7"
"2024-04-17 10:29:05.238691","5","v2.0.7"
"2024-04-17 09:24:07.425737","6","v2.0.7"
"2024-04-17 08:13:28.246242","5","v2.0.7"
"2024-04-17 06:59:15.116331","4","v2.0.7"
"2024-04-17 05:47:55.032990","4","v2.0.7"
"2024-04-17 04:27:25.151117","2","v2.0.7"
"2024-04-17 03:25:03.637014","5","v2.0.7"
"2024-04-17 02:22:55.507627","6","v2.0.7"
"2024-04-17 01:02:27.041374","4","v2.0.7"
"2024-04-16 23:47:11.681341","2","v2.0.7"
"2024-04-16 22:30:26.042455","6","v2.0.7"
"2024-04-16 21:08:11.619030","6","v2.0.7"
"2024-04-16 20:06:07.570355","4","v2.0.7"
"2024-04-16 19:03:54.770210","6","v2.0.7"
"2024-04-16 17:51:40.564499","9","v2.0.7"
"2024-04-16 16:45:55.641562","7","v2.0.7"
"2024-04-16 15:45:00.002442","6","v2.0.7"
"2024-04-16 14:39:56.280626","5","v2.0.7"
"2024-04-16 13:39:53.434017","6","v2.0.7"
"2024-04-16 12:34:45.886897","5","v2.0.7"
"2024-04-16 11:11:46.813037","6","v2.0.7"
"2024-04-16 09:57:28.876898","7","v2.0.7"
"2024-04-16 08:43:46.223186","7","v2.0.7"
"2024-04-16 07:28:18.999535","3","v2.0.7"
"2024-04-16 05:39:53.063882","3","v2.0.7"
"2024-04-16 03:41:00.241499","7","v2.0.7"
"2024-04-16 02:38:18.064189","3","v2.0.7"
"2024-04-16 00:38:15.731796","2","v2.0.7"
"2024-04-15 23:15:05.934931","7","v2.0.7"
"2024-04-15 22:13:49.722052","4","v2.0.7"
"2024-04-15 21:06:09.988087","3","v2.0.7"
"2024-04-15 20:04:03.181013","5","v2.0.7"
"2024-04-15 18:43:11.122031","5","v2.0.7"
"2024-04-15 17:31:29.514008","10","v2.0.7"
"2024-04-15 16:05:36.258776","5","v2.0.7"
"2024-04-15 14:53:48.198214","7","v2.0.7"
"2024-04-15 13:50:41.171939","5","v2.0.7"
"2024-04-15 12:36:10.166297","5","v2.0.7"
"2024-04-15 11:25:15.909219","7","v2.0.7"
"2024-04-15 10:23:06.754468","3","v2.0.7"
"2024-04-15 09:13:45.736570","4","v2.0.7"
"2024-04-15 08:11:30.843726","3","v2.0.7"
"2024-04-15 06:45:11.658590","3","v2.0.7"
"2024-04-15 05:06:53.896547","4","v2.0.7"
"2024-04-15 03:47:51.876106","5","v2.0.7"
"2024-04-15 02:24:15.566075","7","v2.0.7"
"2024-04-15 00:51:47.643394","6","v2.0.7"
"2024-04-14 22:24:08.148782","9","v2.0.7"
"2024-04-14 21:11:29.130013","14","v2.0.7"
"2024-04-14 19:58:42.118513","6","v2.0.7"
"2024-04-14 18:45:32.799911","11","v2.0.7"
"2024-04-14 17:42:12.630052","8","v2.0.7"
"2024-04-14 16:34:05.793223","13","v2.0.7"
"2024-04-14 15:33:09.939106","9","v2.0.7"
"2024-04-14 14:30:09.561118","9","v2.0.7"
"2024-04-14 12:53:29.612063","8","v2.0.7"
"2024-04-14 11:50:13.279066","8","v2.0.7"
"2024-04-14 10:39:49.080601","9","v2.0.7"